Minot, ND

7:18 PM CST on November 24, 2017 (GMT -0600)
Minot International

Weather History for KMOT - November, 2013

Change the Weather History Date:

Monday, November 11, 2013

  Actual Average Record
Temperature  
Mean Temperature 12 °F 31 °F  
Max Temperature 21 °F 40 °F 67 °F (1999)
Min Temperature 2 °F 22 °F -10 °F (1940)
Degree Days  
Heating Degree Days 53 34  
Month to date heating degree days 377 344  
Since 1 July heating degree days 1270 1304  
Moisture  
Dew Point -1 °F    
Average Humidity 59    
Maximum Humidity 87    
Minimum Humidity 31    
Precipitation  
Precipitation 0.00 in 0.03 in 0.41 in (1975)
Month to date precipitation 0.01 0.32  
Year to date precipitation 24.67 16.38  
Sea Level Pressure  
Sea Level Pressure 30.71 in    
Wind  
Wind Speed 8 mph (West)    
Max Wind Speed 16 mph    
Max Gust Speed 21 mph    
Visibility 10 miles    
Events      
T = Trace of Precipitation, MM = Missing Value Source: NWS Daily Summary

Daily Weather History Graph

Daily Weather History Graph

Search for Another Location

Airport or City:

Trip Planner

Search our weather history database for the weather conditions in past years. The results will help you decide how hot, cold, wet, or windy it might be!

Date:

Astronomy

Nov. 11, 2013 Rise Set
Actual Time 7:46 AM CST 5:11 PM CST
Civil Twilight 7:12 AM CST 5:44 PM CST
Nautical Twilight 6:35 AM CST 6:22 PM CST
Astronomical Twilight 5:58 AM CST 6:59 PM CST
Moon 2:18 PM CST (11/11) 1:05 AM CST (11/11)
Length of Visible Light 10h 31m
Length of Day
9h 24m
Waxing Gibbous, 66% of the Moon is Illuminated
Nov 11
Waxing Gibbous
Nov 17
Full
Nov 25
Last Quarter
Dec 2
New
Dec 9
First Quarter

Hourly Weather History & Observations

Time (CST) Temp. Windchill Dew Point Humidity Pressure Visibility Wind Dir Wind Speed Gust Speed Precip Events Conditions
12:54 AM 7.0 °F -9.8 °F -0.9 °F 70% 30.57 in 10.0 mi NNW 13.8 mph - N/A   Clear
1:54 AM 7.0 °F -9.1 °F -0.9 °F 70% 30.59 in 10.0 mi NNW 12.7 mph - N/A   Clear
2:54 AM 5.0 °F -10.0 °F -0.9 °F 76% 30.61 in 10.0 mi NNW 10.4 mph - N/A   Clear
3:54 AM 3.9 °F -9.4 °F -0.9 °F 80% 30.63 in 10.0 mi NW 8.1 mph - N/A   Clear
4:54 AM 3.0 °F -8.0 °F -2.0 °F 80% 30.65 in 10.0 mi NW 5.8 mph - N/A   Clear
5:54 AM 1.9 °F -10.6 °F -2.9 °F 80% 30.68 in 10.0 mi NW 6.9 mph - N/A   Clear
6:54 AM 1.9 °F -11.8 °F -2.9 °F 80% 30.70 in 10.0 mi WNW 8.1 mph - N/A   Clear
7:54 AM 1.9 °F -10.6 °F -4.0 °F 76% 30.73 in 10.0 mi WNW 6.9 mph - N/A   Clear
8:54 AM 5.0 °F -8.1 °F -2.0 °F 73% 30.75 in 10.0 mi NW 8.1 mph - N/A   Clear
9:54 AM 6.1 °F -4.3 °F -0.9 °F 73% 30.76 in 10.0 mi West 5.8 mph - N/A   Clear
10:54 AM 10.0 °F 1.8 °F -0.0 °F 64% 30.77 in 10.0 mi Variable 4.6 mph - N/A   Clear
11:54 AM 12.0 °F - -0.9 °F 56% 30.76 in 10.0 mi Calm Calm - N/A   Clear
12:54 PM 15.1 °F 7.7 °F -2.0 °F 47% 30.77 in 10.0 mi West 4.6 mph - N/A   Clear
1:54 PM 18.0 °F 8.7 °F -4.0 °F 38% 30.76 in 10.0 mi West 6.9 mph - N/A   Clear
2:54 PM 19.0 °F 12.3 °F -5.1 °F 34% 30.75 in 10.0 mi SSW 4.6 mph - N/A   Clear
3:54 PM 19.9 °F 10.1 °F -5.1 °F 33% 30.74 in 10.0 mi SSW 8.1 mph - N/A   Clear
4:54 PM 19.0 °F 10.0 °F -7.1 °F 31% 30.74 in 10.0 mi SSW 6.9 mph - N/A   Clear
5:54 PM 18.0 °F 11.1 °F -5.1 °F 36% 30.76 in 10.0 mi SSW 4.6 mph - N/A   Clear
6:54 PM 16.0 °F 10.4 °F -4.0 °F 41% 30.76 in 10.0 mi South 3.5 mph - N/A   Clear
7:54 PM 15.1 °F 9.4 °F -2.0 °F 47% 30.76 in 10.0 mi SSE 3.5 mph - N/A   Clear
8:54 PM 15.1 °F - -0.9 °F 49% 30.75 in 10.0 mi Calm Calm - N/A   Clear
9:54 PM 15.1 °F 5.2 °F 3.0 °F 59% 30.73 in 10.0 mi SSW 6.9 mph - N/A   Clear
10:54 PM 18.0 °F 6.1 °F 8.1 °F 65% 30.71 in 10.0 mi SSW 10.4 mph - N/A   Clear
11:54 PM 19.0 °F 7.5 °F 10.0 °F 68% 30.69 in 10.0 mi SSW 10.4 mph - N/A   Clear